Big Bear Station Historical Data
Daily Summary for July 30, 2017 Units:  English    Metric   Both
Next Day »
Daily Weekly Monthly Yearly Custom
  High: Low: Average:
Temperature: 86.9 °F 52.9 °F 68.9 °F
Dew Point: 53.8 °F 36.5 °F 44.6 °F
Humidity: 76% 22% 45%
Wind Speed: 6.3mph 0.0mph 1.8mph
Wind Gust: -999.0mph - -
Wind- - West
Pressure: 30.36 in 30.31 in -
Precipitation: 0.00 in    
Historical Graphs
 
 
Tabular Data for July 30, 2017
Time Temperature Dew Point Pressure Wind Wind Speed Wind Gust Humidity Rainfall Rate (Hourly)
00:01 57.7 °F 41.2 °F 30.34 in Calm   -999.0 mph 54% 0 in
00:16 57.4 °F 41.4 °F 30.34 in Calm   -999.0 mph 55% 0 in
00:32 57.2 °F 40.7 °F 30.34 in Calm   -999.0 mph 54% 0 in
00:47 56.7 °F 39.8 °F 30.34 in Calm   -999.0 mph 53% 0 in
01:02 56.7 °F 38.8 °F 30.34 in Calm   -999.0 mph 51% 0 in
01:17 56.5 °F 39.1 °F 30.34 in South 1.7 mph -999.0 mph 52% 0 in
01:32 55.9 °F 39.0 °F 30.33 in Calm   -999.0 mph 53% 0 in
01:48 55.8 °F 38.4 °F 30.33 in SSE 2.2 mph -999.0 mph 52% 0 in
02:03 55.4 °F 38.6 °F 30.33 in Calm   -999.0 mph 53% 0 in
02:19 55.2 °F 38.4 °F 30.33 in Calm   -999.0 mph 53% 0 in
02:34 55.0 °F 38.2 °F 30.32 in Calm   -999.0 mph 53% 0 in
02:49 55.0 °F 39.1 °F 30.32 in Calm   -999.0 mph 55% 0 in
03:04 54.3 °F 40.3 °F 30.32 in Calm   -999.0 mph 59% 0 in
03:20 54.3 °F 39.4 °F 30.32 in Calm   -999.0 mph 57% 0 in
03:35 54.1 °F 39.6 °F 30.32 in Calm   -999.0 mph 58% 0 in
03:50 54.1 °F 40.5 °F 30.32 in Calm   -999.0 mph 60% 0 in
04:05 54.0 °F 41.3 °F 30.32 in Calm   -999.0 mph 62% 0 in
04:20 53.8 °F 38.9 °F 30.32 in Calm   -999.0 mph 57% 0 in
04:36 53.6 °F 37.8 °F 30.32 in Calm   -999.0 mph 55% 0 in
04:51 53.4 °F 37.6 °F 30.32 in Calm   -999.0 mph 55% 0 in
05:06 53.4 °F 43.5 °F 30.32 in Calm   -999.0 mph 69% 0 in
05:21 53.1 °F 43.9 °F 30.33 in Calm   -999.0 mph 71% 0 in
05:36 53.4 °F 45.0 °F 30.33 in Calm   -999.0 mph 73% 0 in
05:52 52.9 °F 44.1 °F 30.33 in Calm   -999.0 mph 72% 0 in
06:07 53.1 °F 42.4 °F 30.34 in Calm   -999.0 mph 67% 0 in
06:22 53.1 °F 43.9 °F 30.35 in Calm   -999.0 mph 71% 0 in
06:37 53.4 °F 45.7 °F 30.35 in Calm   -999.0 mph 75% 0 in
06:53 54.5 °F 47.1 °F 30.35 in Calm   -999.0 mph 76% 0 in
07:08 54.7 °F 47.3 °F 30.35 in Calm   -999.0 mph 76% 0 in
07:23 55.2 °F 47.8 °F 30.35 in Calm   -999.0 mph 76% 0 in
07:38 55.4 °F 47.6 °F 30.35 in Calm   -999.0 mph 75% 0 in
07:53 56.8 °F 49.3 °F 30.35 in Calm   -999.0 mph 76% 0 in
08:08 59.5 °F 49.3 °F 30.36 in Calm   -999.0 mph 69% 0 in
08:24 62.1 °F 50.2 °F 30.35 in NNW 1.7 mph -999.0 mph 65% 0 in
08:39 63.1 °F 49.0 °F 30.35 in Calm   -999.0 mph 60% 0 in
08:54 64.9 °F 49.8 °F 30.35 in Calm   -999.0 mph 58% 0 in
09:09 67.1 °F 45.6 °F 30.35 in Calm   -999.0 mph 46% 0 in
09:25 70.0 °F 50.5 °F 30.35 in NW 2.2 mph -999.0 mph 50% 0 in
09:40 72.1 °F 46.5 °F 30.35 in NNW 3.7 mph -999.0 mph 40% 0 in
09:55 73.9 °F 48.7 °F 30.36 in NNE 2.2 mph -999.0 mph 41% 0 in
10:11 76.1 °F 47.9 °F 30.36 in NW 3.7 mph -999.0 mph 37% 0 in
10:26 76.8 °F 46.3 °F 30.36 in NNW 2.7 mph -999.0 mph 34% 0 in
10:41 77.7 °F 45.5 °F 30.36 in NNE 2.2 mph -999.0 mph 32% 0 in
10:57 78.6 °F 45.4 °F 30.35 in NNW 2.7 mph -999.0 mph 31% 0 in
11:12 81.0 °F 46.7 °F 30.35 in SSW 6.3 mph -999.0 mph 30% 0 in
11:27 82.6 °F 47.1 °F 30.35 in NW 4.7 mph -999.0 mph 29% 0 in
11:42 83.5 °F 47.0 °F 30.35 in NW 3.7 mph -999.0 mph 28% 0 in
11:58 80.8 °F 46.5 °F 30.35 in WNW 2.7 mph -999.0 mph 30% 0 in
12:13 80.8 °F 45.6 °F 30.35 in WSW 2.7 mph -999.0 mph 29% 0 in
12:28 83.1 °F 45.7 °F 30.35 in WNW 5.3 mph -999.0 mph 27% 0 in
12:43 84.9 °F 46.2 °F 30.35 in WNW 4.2 mph -999.0 mph 26% 0 in
12:58 86.0 °F 42.7 °F 30.35 in North 2.2 mph -999.0 mph 22% 0 in
13:14 86.4 °F 44.2 °F 30.35 in WNW 4.7 mph -999.0 mph 23% 0 in
13:29 86.9 °F 44.7 °F 30.34 in NNW 3.7 mph -999.0 mph 23% 0 in
13:44 85.6 °F 47.8 °F 30.34 in WNW 4.2 mph -999.0 mph 27% 0 in
14:00 84.4 °F 45.8 °F 30.34 in WNW 4.7 mph -999.0 mph 26% 0 in
14:15 86.4 °F 47.5 °F 30.34 in NE 3.7 mph -999.0 mph 26% 0 in
14:30 85.3 °F 53.8 °F 30.34 in NW 6.3 mph -999.0 mph 34% 0 in
14:46 82.9 °F 50.0 °F 30.34 in NW 3.7 mph -999.0 mph 32% 0 in
15:01 83.3 °F 51.2 °F 30.33 in NW 4.7 mph -999.0 mph 33% 0 in
15:16 84.0 °F 49.2 °F 30.33 in WNW 4.7 mph -999.0 mph 30% 0 in
15:32 85.6 °F 49.7 °F 30.32 in NW 4.7 mph -999.0 mph 29% 0 in
15:47 83.7 °F 49.9 °F 30.32 in NW 4.7 mph -999.0 mph 31% 0 in
16:02 84.6 °F 49.8 °F 30.32 in NW 4.7 mph -999.0 mph 30% 0 in
16:18 85.3 °F 51.3 °F 30.32 in WNW 4.7 mph -999.0 mph 31% 0 in
16:33 84.6 °F 50.6 °F 30.32 in NW 5.3 mph -999.0 mph 31% 0 in
16:48 84.2 °F 49.4 °F 30.31 in NW 4.7 mph -999.0 mph 30% 0 in
17:04 83.8 °F 50.0 °F 30.32 in North 4.7 mph -999.0 mph 31% 0 in
17:19 85.1 °F 50.2 °F 30.31 in NNW 5.3 mph -999.0 mph 30% 0 in
17:34 84.4 °F 51.3 °F 30.31 in NW 4.7 mph -999.0 mph 32% 0 in
17:50 83.5 °F 50.5 °F 30.31 in WNW 4.2 mph -999.0 mph 32% 0 in
18:05 82.9 °F 52.5 °F 30.31 in WNW 4.2 mph -999.0 mph 35% 0 in
18:20 82.8 °F 51.6 °F 30.31 in NW 3.7 mph -999.0 mph 34% 0 in
18:35 81.1 °F 51.6 °F 30.31 in NNE 3.7 mph -999.0 mph 36% 0 in
18:50 78.4 °F 50.7 °F 30.31 in Calm   -999.0 mph 38% 0 in
19:06 77.9 °F 50.3 °F 30.32 in SW 3.7 mph -999.0 mph 38% 0 in
19:21 75.2 °F 49.2 °F 30.32 in Calm   -999.0 mph 40% 0 in
19:36 73.0 °F 47.9 °F 30.32 in South 1.1 mph -999.0 mph 41% 0 in
19:51 72.1 °F 46.5 °F 30.32 in SSE 1.7 mph -999.0 mph 40% 0 in
20:06 71.4 °F 45.2 °F 30.33 in Calm   -999.0 mph 39% 0 in
20:22 70.7 °F 37.7 °F 30.34 in South 1.7 mph -999.0 mph 30% 0 in
20:37 70.3 °F 36.5 °F 30.34 in Calm   -999.0 mph 29% 0 in
20:52 69.4 °F 36.6 °F 30.34 in Calm   -999.0 mph 30% 0 in
21:07 68.0 °F 37.8 °F 30.34 in Calm   -999.0 mph 33% 0 in
21:22 66.9 °F 38.4 °F 30.35 in Calm   -999.0 mph 35% 0 in
21:38 66.0 °F 40.3 °F 30.35 in Calm   -999.0 mph 39% 0 in
21:53 65.5 °F 38.5 °F 30.36 in Calm   -999.0 mph 37% 0 in
22:08 64.8 °F 37.9 °F 30.36 in Calm   -999.0 mph 37% 0 in
22:23 64.0 °F 37.9 °F 30.36 in SSE 1.7 mph -999.0 mph 38% 0 in
22:38 63.3 °F 38.6 °F 30.35 in Calm   -999.0 mph 40% 0 in
22:54 62.2 °F 38.8 °F 30.36 in Calm   -999.0 mph 42% 0 in
23:09 61.7 °F 39.0 °F 30.35 in Calm   -999.0 mph 43% 0 in
23:25 61.5 °F 38.8 °F 30.35 in Calm   -999.0 mph 43% 0 in
23:40 61.9 °F 39.7 °F 30.35 in SSE 1.7 mph -999.0 mph 44% 0 in
23:55 61.5 °F 40.0 °F 30.35 in Calm   -999.0 mph 45% 0 in
Big Bear CA Weather